TimeEDT,TemperatureF,Dew PointF,Humidity,Sea Level PressureIn,VisibilityMPH,Wind Direction,Wind SpeedMPH,Gust SpeedMPH,PrecipitationIn,Events,Conditions,WindDirDegrees,DateUTC
12:53 AM,35.1,27.0,72,30.10,10.0,Calm,Calm,-,N/A,,Clear,0,2013-03-30 04:53:00
1:53 AM,37.0,30.0,76,30.11,10.0,Calm,Calm,-,N/A,,Overcast,0,2013-03-30 05:53:00
2:53 AM,33.1,28.0,82,30.11,10.0,Calm,Calm,-,N/A,,Partly Cloudy,0,2013-03-30 06:53:00
3:53 AM,32.0,27.0,82,30.11,10.0,Calm,Calm,-,N/A,,Mostly Cloudy,0,2013-03-30 07:53:00
4:53 AM,30.0,26.1,85,30.11,10.0,Calm,Calm,-,N/A,,Scattered Clouds,0,2013-03-30 08:53:00
5:53 AM,28.9,26.1,89,30.12,10.0,Calm,Calm,-,N/A,,Clear,0,2013-03-30 09:53:00
6:53 AM,27.0,24.1,89,30.13,10.0,Calm,Calm,-,N/A,,Clear,0,2013-03-30 10:53:00
7:53 AM,32.0,27.0,82,30.14,10.0,Calm,Calm,-,N/A,,Clear,0,2013-03-30 11:53:00
8:53 AM,39.9,30.9,70,30.15,10.0,Calm,Calm,-,N/A,,Clear,0,2013-03-30 12:53:00
9:53 AM,45.0,30.0,56,30.14,10.0,Calm,Calm,-,N/A,,Clear,0,2013-03-30 13:53:00
10:53 AM,50.0,28.0,43,30.13,10.0,Calm,Calm,-,N/A,,Clear,0,2013-03-30 14:53:00
11:53 AM,52.0,23.0,32,30.12,10.0,Variable,3.5,-,N/A,,Mostly Cloudy,0,2013-03-30 15:53:00
12:53 PM,54.0,23.0,30,30.09,10.0,West,6.9,-,N/A,,Scattered Clouds,270,2013-03-30 16:53:00
1:53 PM,55.0,21.9,28,30.06,10.0,West,10.4,20.7,N/A,,Mostly Cloudy,260,2013-03-30 17:53:00
2:53 PM,55.9,18.0,23,30.05,10.0,Variable,3.5,18.4,N/A,,Overcast,0,2013-03-30 18:53:00
3:53 PM,55.9,18.0,23,30.04,10.0,NNW,8.1,-,N/A,,Mostly Cloudy,340,2013-03-30 19:53:00
4:53 PM,55.9,17.1,22,30.04,10.0,NW,9.2,-,N/A,,Scattered Clouds,320,2013-03-30 20:53:00
5:53 PM,55.9,18.0,23,30.04,10.0,North,8.1,-,N/A,,Clear,350,2013-03-30 21:53:00
6:53 PM,53.1,18.0,25,30.05,10.0,WNW,4.6,-,N/A,,Clear,300,2013-03-30 22:53:00
7:53 PM,51.1,18.0,27,30.07,10.0,WNW,3.5,-,N/A,,Clear,290,2013-03-30 23:53:00
8:53 PM,42.1,21.9,45,30.09,10.0,Calm,Calm,-,N/A,,Clear,0,2013-03-31 00:53:00
9:53 PM,37.9,24.1,57,30.10,10.0,Calm,Calm,-,N/A,,Clear,0,2013-03-31 01:53:00
10:53 PM,36.0,23.0,59,30.10,10.0,Calm,Calm,-,N/A,,Clear,0,2013-03-31 02:53:00
11:53 PM,33.1,23.0,66,30.12,10.0,Calm,Calm,-,N/A,,Clear,0,2013-03-31 03:53:00